| time (UTC) | temp F | wind direction | speed knots | gust knots | rain 1hr in | rain 24hr in | rain mn in | humidity % | barometer mb |
| 20260506195109 | 48 | 358 | 2.6 | 7.0 | 0.00 | 0.61 | 0.50 | 89 | 1013.0 |
| 20260506194111 | 48 | 8 | 3.5 | 6.1 | 0.00 | 0.61 | 0.50 | 90 | 1012.9 |
| 20260506193110 | 49 | 9 | 3.5 | 5.2 | 0.00 | 0.61 | 0.50 | 91 | 1012.8 |
| 20260506192111 | 49 | 11 | 3.5 | 6.1 | 0.00 | 0.62 | 0.50 | 91 | 1012.7 |
| 20260506190111 | 50 | 348 | 1.7 | 4.3 | 0.00 | 0.64 | 0.50 | 94 | 1012.3 |
| 20260506185109 | 50 | 351 | 1.7 | 4.3 | 0.00 | 0.65 | 0.50 | 93 | 1012.2 |
| 20260506184102 | 51 | 342 | 2.6 | 5.2 | 0.00 | 0.65 | 0.50 | 91 | 1012.0 |
| 20260506183107 | 51 | 320 | 1.7 | 5.2 | 0.00 | 0.65 | 0.50 | 90 | 1011.9 |
| 20260506180109 | 51 | 314 | 1.7 | 6.1 | 0.00 | 0.66 | 0.50 | 88 | 1011.5 |
| 20260506175106 | 51 | 311 | 1.7 | 5.2 | 0.00 | 0.66 | 0.50 | 88 | 1011.4 |
| 20260506174106 | 51 | 46 | 1.7 | 5.2 | 0.00 | 0.66 | 0.50 | 87 | 1011.3 |
| 20260506173103 | 51 | 316 | 2.6 | 6.1 | 0.00 | 0.66 | 0.50 | 87 | 1011.1 |
| 20260506172106 | 51 | 316 | 2.6 | 7.8 | 0.00 | 0.66 | 0.50 | 85 | 1011.0 |
| 20260506171105 | 52 | 302 | 3.5 | 7.8 | 0.00 | 0.66 | 0.50 | 83 | 1011.0 |
| 20260506170100 | 52 | 355 | 2.6 | 7.8 | 0.00 | 0.66 | 0.50 | 82 | 1010.9 |
| 20260506165100 | 53 | 321 | 4.3 | 9.6 | 0.00 | 0.66 | 0.50 | 83 | 1010.8 |
| 20260506164103 | 53 | 355 | 2.6 | 7.8 | 0.00 | 0.66 | 0.50 | 81 | 1010.8 |
| 20260506163101 | 53 | 296 | 2.6 | 7.0 | 0.00 | 0.66 | 0.50 | 85 | 1010.8 |
| 20260506162106 | 52 | 290 | 1.7 | 4.3 | 0.00 | 0.66 | 0.50 | 85 | 1010.8 |
| 20260506161104 | 51 | 293 | 0.9 | 4.3 | 0.00 | 0.66 | 0.50 | 92 | 1010.8 |
| 20260506155103 | 51 | 253 | 0.9 | 2.6 | 0.00 | 0.66 | 0.50 | 95 | 1010.9 |
| 20260506154107 | 51 | 299 | 0.9 | 2.6 | 0.00 | 0.66 | 0.50 | 93 | 1010.9 |
| 20260506153101 | 51 | 331 | 0.9 | 3.5 | 0.00 | 0.66 | 0.50 | 93 | 1010.9 |
| 20260506152101 | 51 | 36 | 0.9 | 3.5 | 0.00 | 0.66 | 0.50 | 91 | 1010.8 |
| 20260506151104 | 52 | 340 | 1.7 | 3.5 | 0.00 | 0.66 | 0.50 | 90 | 1010.8 |
| 20260506150100 | 52 | 356 | 1.7 | 4.3 | 0.00 | 0.66 | 0.50 | 90 | 1010.8 |
| 20260506144059 | 52 | 3 | 1.7 | 4.3 | 0.00 | 0.66 | 0.50 | 88 | 1010.7 |
| 20260506143059 | 53 | 291 | 2.6 | 5.2 | 0.00 | 0.66 | 0.50 | 88 | 1010.6 |
| 20260506142058 | 53 | 322 | 2.6 | 5.2 | 0.00 | 0.66 | 0.50 | 86 | 1010.7 |
| 20260506141059 | 53 | 314 | 1.7 | 5.2 | 0.00 | 0.66 | 0.50 | 87 | 1010.7 |
| 20260506140106 | 52 | 282 | 2.6 | 6.1 | 0.00 | 0.66 | 0.50 | 92 | 1010.7 |
| 20260506135100 | 52 | 285 | 1.7 | 4.3 | 0.00 | 0.66 | 0.50 | 93 | 1010.7 |
| 20260506134100 | 52 | 290 | 2.6 | 6.1 | 0.00 | 0.66 | 0.50 | 93 | 1010.8 |
| 20260506133059 | 52 | 294 | 2.6 | 5.2 | 0.00 | 0.66 | 0.50 | 91 | 1010.8 |
| 20260506132059 | 51 | 298 | 2.6 | 5.2 | 0.00 | 0.66 | 0.50 | 92 | 1010.8 |
| 20260506131059 | 51 | 314 | 2.6 | 6.1 | 0.00 | 0.66 | 0.50 | 92 | 1010.7 |
| 20260506130059 | 51 | 313 | 2.6 | 6.1 | 0.00 | 0.66 | 0.50 | 92 | 1010.7 |
| 20260506125059 | 52 | 303 | 2.6 | 7.0 | 0.00 | 0.66 | 0.50 | 93 | 1010.6 |
| 20260506122058 | 52 | 306 | 2.6 | 7.0 | 0.00 | 0.66 | 0.50 | 91 | 1010.4 |
| 20260506121056 | 52 | 335 | 2.6 | 7.0 | 0.00 | 0.66 | 0.50 | 91 | 1010.3 |
| 20260506115058 | 51 | 319 | 3.5 | 7.8 | 0.00 | 0.66 | 0.50 | 94 | 1010.3 |
| 20260506114100 | 51 | 331 | 3.5 | 9.6 | 0.00 | 0.66 | 0.50 | 95 | 1010.4 |
| 20260506113100 | 51 | 324 | 3.5 | 8.7 | 0.00 | 0.66 | 0.50 | 95 | 1010.4 |
| 20260506112100 | 51 | 316 | 3.5 | 7.0 | 0.00 | 0.66 | 0.50 | 95 | 1010.4 |
| 20260506111100 | 51 | 336 | 4.3 | 8.7 | 0.00 | 0.66 | 0.50 | 97 | 1010.4 |
| 20260506110058 | 50 | 337 | 3.5 | 7.8 | 0.00 | 0.66 | 0.50 | 98 | 1010.5 |
| 20260506105058 | 50 | 226 | 4.3 | 8.7 | 0.00 | 0.66 | 0.50 | 99 | 1010.5 |
| 20260506104100 | 49 | 331 | 3.5 | 8.7 | 0.00 | 0.66 | 0.50 | 99 | 1010.6 |
| 20260506103059 | 49 | 355 | 2.6 | 7.0 | 0.00 | 0.66 | 0.50 | 10 | 1010.6 |
| 20260506102100 | 49 | 342 | 4.3 | 11.3 | 0.00 | 0.66 | 0.50 | 10 | 1010.5 |
| 20260506101058 | 48 | 351 | 4.3 | 9.6 | 0.00 | 0.66 | 0.50 | 10 | 1010.5 |
| 20260506100057 | 48 | 352 | 4.3 | 9.6 | 0.00 | 0.66 | 0.50 | 10 | 1010.4 |
| 20260506095058 | 48 | 344 | 3.5 | 7.8 | 0.01 | 0.66 | 0.50 | 10 | 1010.4 |
| 20260506094059 | 48 | 53 | 4.3 | 8.7 | 0.01 | 0.66 | 0.50 | 10 | 1010.3 |
| 20260506093058 | 47 | 75 | 3.5 | 7.8 | 0.01 | 0.66 | 0.50 | 10 | 1010.2 |
| 20260506091057 | 47 | 228 | 4.3 | 8.7 | 0.02 | 0.66 | 0.50 | 10 | 1010.1 |
| 20260506090100 | 47 | 330 | 3.5 | 7.0 | 0.02 | 0.66 | 0.50 | 10 | 1010.0 |
| 20260506085059 | 47 | 329 | 3.5 | 8.7 | 0.02 | 0.66 | 0.50 | 10 | 1009.9 |
| 20260506084056 | 47 | 332 | 4.3 | 8.7 | 0.02 | 0.65 | 0.49 | 10 | 1009.8 |
| 20260506083056 | 47 | 330 | 4.3 | 9.6 | 0.02 | 0.66 | 0.49 | 10 | 1009.7 |
| 20260506082056 | 47 | 335 | 4.3 | 8.7 | 0.03 | 0.66 | 0.49 | 10 | 1009.7 |
| 20260506081057 | 46 | 346 | 4.3 | 8.7 | 0.02 | 0.65 | 0.48 | 10 | 1009.6 |
| 20260506073056 | 46 | 330 | 4.3 | 9.6 | 0.05 | 0.65 | 0.47 | 10 | 1009.4 |
| 20260506072054 | 46 | 327 | 3.5 | 10.4 | 0.05 | 0.64 | 0.46 | 10 | 1009.3 |
| 20260506071057 | 46 | 327 | 3.5 | 7.8 | 0.04 | 0.63 | 0.46 | 10 | 1009.3 |
| 20260506061054 | 45 | 325 | 3.5 | 7.8 | 0.07 | 0.59 | 0.42 | 10 | 1009.1 |
| 20260506051055 | 45 | 322 | 3.5 | 7.8 | 0.07 | 0.53 | 0.35 | 10 | 1009.2 |
| 20260506045053 | 45 | 336 | 4.3 | 8.7 | 0.07 | 0.50 | 0.33 | 10 | 1009.1 |
| 20260506044055 | 45 | 341 | 3.5 | 8.7 | 0.06 | 0.49 | 0.31 | 10 | 1009.0 |
| 20260506043058 | 45 | 333 | 4.3 | 8.7 | 0.06 | 0.48 | 0.31 | 10 | 1009.0 |
| 20260506042053 | 45 | 67 | 4.3 | 9.6 | 0.06 | 0.47 | 0.30 | 10 | 1009.0 |
| 20260506041055 | 45 | 335 | 4.3 | 7.8 | 0.06 | 0.46 | 0.29 | 10 | 1008.9 |
| 20260506040055 | 45 | 337 | 4.3 | 8.7 | 0.06 | 0.46 | 0.28 | 10 | 1008.9 |
| 20260506035058 | 45 | 335 | 4.3 | 9.6 | 0.05 | 0.44 | 0.27 | 10 | 1008.9 |
| 20260506034058 | 45 | 334 | 3.5 | 8.7 | 0.05 | 0.43 | 0.26 | 10 | 1009.0 |
| 20260506032055 | 46 | 339 | 3.5 | 7.0 | 0.05 | 0.42 | 0.24 | 10 | 1009.0 |
| 20260506031055 | 46 | 346 | 4.3 | 8.7 | 0.04 | 0.41 | 0.24 | 10 | 1009.0 |
| 20260506025055 | 46 | 341 | 4.3 | 8.7 | 0.05 | 0.40 | 0.23 | 10 | 1009.1 |
| 20260506024054 | 46 | 341 | 4.3 | 9.6 | 0.05 | 0.39 | 0.22 | 10 | 1009.2 |
| 20260506023058 | 46 | 349 | 4.3 | 8.7 | 0.05 | 0.39 | 0.21 | 10 | 1009.2 |
| 20260506022055 | 46 | 347 | 4.3 | 7.8 | 0.05 | 0.38 | 0.20 | 10 | 1009.2 |
| 20260506021056 | 46 | 348 | 4.3 | 8.7 | 0.06 | 0.37 | 0.20 | 10 | 1009.2 |
| 20260506020057 | 46 | 105 | 4.3 | 10.4 | 0.06 | 0.37 | 0.20 | 10 | 1009.2 |
| 20260506015056 | 46 | 19 | 5.2 | 10.4 | 0.06 | 0.36 | 0.19 | 10 | 1009.2 |
| 20260506014056 | 46 | 354 | 5.2 | 9.6 | 0.07 | 0.35 | 0.18 | 10 | 1009.2 |
| 20260506013055 | 46 | 355 | 5.2 | 9.6 | 0.06 | 0.35 | 0.17 | 10 | 1009.2 |
| 20260506012055 | 47 | 349 | 4.3 | 8.7 | 0.06 | 0.34 | 0.17 | 10 | 1009.2 |
| 20260506011055 | 47 | 351 | 4.3 | 9.6 | 0.06 | 0.33 | 0.16 | 10 | 1009.2 |
| 20260506010051 | 47 | 21 | 4.3 | 9.6 | 0.06 | 0.31 | 0.14 | 10 | 1009.2 |
| 20260506005055 | 47 | 351 | 4.3 | 10.4 | 0.06 | 0.31 | 0.13 | 10 | 1009.3 |
| 20260506004057 | 47 | 46 | 3.5 | 7.8 | 0.06 | 0.30 | 0.13 | 10 | 1009.3 |
| 20260506002057 | 48 | 1 | 4.3 | 8.7 | 0.05 | 0.29 | 0.11 | 10 | 1009.4 |
| 20260506001055 | 48 | 7 | 5.2 | 9.6 | 0.05 | 0.28 | 0.10 | 10 | 1009.4 |
| 20260505232108 | 48 | 11 | 5.2 | 11.3 | 0.04 | 0.24 | 0.06 | 10 | 1009.7 |
| 20260505231105 | 48 | 8 | 5.2 | 11.3 | 0.06 | 0.24 | 0.06 | 10 | 1009.8 |
| 20260505230107 | 48 | 15 | 4.3 | 9.6 | 0.06 | 0.24 | 0.06 | 10 | 1009.8 |
| 20260505224103 | 48 | 22 | 6.1 | 11.3 | 0.07 | 0.23 | 0.05 | 10 | 1009.9 |
| 20260505223106 | 48 | 19 | 4.3 | 11.3 | 0.07 | 0.22 | 0.04 | 10 | 1009.8 |
| 20260505222107 | 48 | 20 | 4.3 | 9.6 | 0.07 | 0.21 | 0.03 | 10 | 1009.8 |
| 20260505220104 | 48 | 17 | 4.3 | 9.6 | 0.07 | 0.19 | 0.01 | 10 | 1009.9 |
| 20260505215115 | 48 | 15 | 5.2 | 11.3 | 0.09 | 0.18 | 0.18 | 10 | 1009.9 |
| 20260505214114 | 48 | 10 | 4.3 | 7.0 | 0.07 | 0.17 | 0.17 | 10 | 1010.0 |
| 20260505213113 | 48 | 11 | 5.2 | 10.4 | 0.07 | 0.16 | 0.16 | 10 | 1010.0 |
| 20260505212113 | 48 | 14 | 6.1 | 12.2 | 0.06 | 0.15 | 0.15 | 10 | 1010.1 |
| 20260505211111 | 48 | 17 | 7.0 | 12.2 | 0.08 | 0.14 | 0.14 | 10 | 1010.1 |
| 20260505203113 | 49 | 2 | 5.2 | 9.6 | 0.03 | 0.09 | 0.09 | 10 | 1010.1 |